SCP
-0 0 0 0 0 0 0 -0 -0 -0 0 0 0 0 0 0 0 0 -0 -0 0 0 0 0 0 -0 -0 0 -0 -0 0 0 0 0 0 0 0 0 0 0 0 0 0 0 0 0 0 0 0
-0 0 0 0 0 -0 0 0 -0 -0 0 -0 0 -0 0 0 0 0 -0 0 -0 0 -0 0 0 -0 -0 -0 -0 -0 0 0 0 0 0 0 -0 0 0 0 0 0 0 0 0 0 0 0 0
-0 -0 -0 -0 0 0 0 -0 -0 0 -0 -0 0 0 0 0 -0 0 0 -0 -0 -0 -0 0 -0 -0 -0 -0 -0 0 0 0 0 0 0 0 -0 0 0 0 0 0 0 -0 0 -0 0 0 0
-0 -0 -0 0 -0 -0 -0 -0 -0 -0 0 -0 -0 -0 0 -0 0 -0 0 -0 -0 0 -0 -0 -0 -0 -0 -0 0 0 0 0 0 -0 -0 0 0 0 0 0 0 0 -0 0 0 0 0 0 0
0 0 0 0 0 0 -0 0 -0 -0 -0 -0 -0 -0 -0 0 -0 -0 0 -0 -0 0 0 0 -0 -0 -0 -0 -0 0 -0 -0 0 0 0 -0 0 0 0 -0 0 0 0 0 0 0 0 0 0
0 0 -0 0 0 -0 -0 -0 -0 -0 -0 -0 -0 0 -0 -0 -0 -0 -0 -0 -0 -0 0 -0 -0 -0 -0 -0 -0 0 0 -0 -0 -0 -0 -0 0 0 0 0 0 0 0 0 0 0 0 0 0
0 0 0 0 -0 -0 -0 -0 -0 -0 -0 0 -0 0 -0 -0 -0 -0 -0 -0 -0 -0 -0 -0 -0 0 -0 0 0 -0 -0 -0 -0 -0 -0 -0 0 -0 0 0 0 0 0 0 0 0 0 0 0
0 0 0 0 0 0 -0 -0 -0 -0 -0 -0 -0 0 -0 -0 -0 -0 0 0 -0 -0 -0 -0 -0 -0 -0 -0 -0 0 0 -0 -0 -0 -0 0 0 0 0 0 1 0 1 1 0 0 0 0 0
0 0 0 0 0 0 -0 -0 0 -0 -0 -0 0 -0 -0 -0 -0 -0 -0 -0 -0 -0 -0 -0 -0 -0 0 0 0 -0 -0 -0 -0 0 -0 0 -0 0 0 0 1 0 0 1 0 0 0 0 1
0 -0 0 0 0 0 0 -0 -0 -0 -0 -0 -0 -0 -0 -0 -0 -0 -0 0 -0 -0 -0 -0 -0 -0 -0 0 -0 -0 -0 -0 -0 -0 -0 -0 0 0 0 0 1 0 0 1 0 1 1 0 0
0 -0 0 0 0 -0 0 -0 -0 -0 -0 -0 -0 -0 -0 -0 -0 -0 -0 0 -0 -0 -0 -0 -0 -0 -0 -0 -0 -0 -0 -0 -0 -0 0 0 0 0 0 0 0 0 0 0 0 0 0 0 0
-0 -0 0 0 0 0 0 -0 -0 -0 -0 -0 -0 -0 -0 -0 -0 0 0 0 0 -0 -0 -0 -0 -0 0 -0 -0 -0 -0 0 0 0 0 0 0 0 0 0 0 0 0 0 0 0 0 0 0
-0 -0 0 -0 0 0 -0 0 0 -0 -0 -0 -0 -0 -0 -0 -0 0 0 0 0 0 -0 -0 -0 -0 0 -0 -0 -0 0 0 0 0 0 -0 0 0 0 0 0 0 0 0 0 0 0 0 1
-0 -0 0 -0 0 0 0 0 -0 -0 -0 -0 -0 -0 -0 -0 -0 0 0 0 0 0 -0 -0 -0 -0 0 0 0 -0 0 0 0 0 0 0 0 0 0 0 0 0 0 0 0 0 0 0 0
-0 -0 -0 0 0 0 0 0 -0 -0 -0 -0 -0 -0 -0 -0 -0 -0 -0 0 0 0 -0 -0 0 0 0 0 -0 0 0 0 0 0 0 0 0 0 0 0 0 0 0 1 1 1 0 0 0
0 0 0 0 0 0 0 0 -0 -0 -0 0 -0 -0 -0 -0 -0 -0 -0 -0 0 0 0 0 0 -0 -0 -0 -0 0 -0 0 0 0 0 0 0 0 0 0 0 0 1 1 0 0 0 0 0
0 0 0 0 0 0 0 0 0 0 0 0 0 0 -0 -0 -0 -0 -0 -0 -0 0 0 0 0 0 -0 -0 -0 0 0 0 0 0 0 0 0 0 -0 0 0 0 0 0 0 0 0 0 0
0 0 -0 0 -0 0 0 0 0 0 0 0 0 -0 0 -0 -0 -0 -0 -0 0 0 0 0 0 -0 -0 -0 -0 -0 0 0 0 0 0 0 0 -0 -0 0 0 0 0 0 1 0 0 0 0
0 0 0 0 -0 0 0 0 0 0 0 0 0 0 0 -0 0 -0 -0 -0 0 0 0 0 -0 -0 -0 -0 -0 0 -0 0 0 0 0 0 -0 -0 -0 0 0 0 0 0 1 0 0 0 0
0 0 0 -0 -0 0 0 0 0 0 0 0 0 0 0 0 -0 -0 -0 -0 -0 -0 0 0 -0 -0 -0 -0 0 0 0 0 0 0 0 -0 -0 -0 -0 0 -0 0 0 0 0 0 0 0 0
-0 -0 -0 -0 0 0 0 0 0 0 0 0 0 0 0 0 0 -0 -0 -0 -0 -0 0 0 -0 -0 -0 -0 0 0 0 0 0 0 0 -0 -0 -0 -0 -0 -0 0 0 0 0 0 0 0 0
0 -0 0 -0 -0 0 -0 0 0 0 0 0 0 0 0 0 0 0 -0 -0 -0 -0 0 0 -0 -0 -0 0 -0 -0 0 -0 0 0 -0 -0 -0 0 -0 -0 -0 -0 0 0 0 0 0 0 0
0 -0 0 0 0 -0 -0 0 0 -0 0 0 0 0 0 0 0 0 0 0 0 0 0 0 0 0 -0 0 0 -0 0 0 0 -0 -0 -0 0 0 0 0 -0 -0 0 0 0 0 0 0 0
0 0 -0 0 0 0 -0 -0 0 -0 0 0 0 0 0 0 0 0 0 0 0 0 0 0 0 0 0 0 0 -0 -0 -0 0 -0 -0 0 0 0 0 0 -0 -0 -0 0 0 0 -0 -0 0
0 0 0 -0 0 -0 0 -0 0 0 -0 0 0 0 0 0 0 0 0 0 0 0 0 0 0 0 0 0 0 -0 -0 0 -0 -0 0 0 0 0 0 0 0 0 0 0 0 0 0 0 -0
-0 0 0 0 0 -0 0 0 0 -0 0 -0 0 0 0 0 0 0 0 0 0 0 0 0 0 0 0 0 0 0 -0 -0 0 0 -0 0 0 0 0 0 0 0 -0 0 0 0 0 0 -0
0 0 0 0 0 0 -0 -0 -0 0 0 -0 -0 0 0 0 0 0 0 0 0 0 0 0 0 0 0 0 0 0 0 0 0 0 0 -0 0 -0 0 0 0 0 0 0 0 0 0 0 0
0 0 0 0 -0 -0 0 -0 0 0 0 -0 -0 0 0 0 0 0 0 0 0 0 0 0 0 0 0 0 0 0 0 0 0 0 -0 0 0 0 0 0 0 0 0 -0 -0 0 0 0 0
0 0 0 0 0 -0 -0 -0 0 0 -0 -0 -0 0 0 0 0 0 0 0 0 0 0 0 0 0 0 0 0 0 0 0 0 0 -0 0 0 0 -0 0 0 0 0 0 0 -0 -0 0 0
0 0 0 0 0 0 -0 0 -0 0 -0 0 -0 0 0 -0 -0 -0 -0 0 0 0 0 0 0 0 0 0 0 0 0 0 0 0 0 0 0 0 0 0 0 0 0 0 0 0 0 0 0
Wind_Speed_500mb
0 6 15 6 1 5 7 10 17 20 13 36 41 14 28 8 11 7 57 53 45 44 39 37 33 31 30 27 27 27 30 33 32 42 43 42 41 38 38 39 39 36 37 38 39 42 44 45 42
4 14 12 6 6 12 11 20 27 18 36 54 40 42 24 11 41 60 66 49 45 45 41 38 34 31 29 27 27 28 29 33 37 38 37 37 37 35 36 35 35 35 35 38 40 46 45 39 39
4 5 6 5 4 5 16 27 38 43 57 48 20 32 12 19 68 68 53 54 47 44 38 34 30 28 28 27 29 30 31 34 34 35 34 35 36 35 34 34 33 32 33 37 38 40 40 36 40
4 6 7 6 6 7 20 25 52 45 41 62 45 23 29 49 56 62 56 56 46 40 36 34 31 28 29 28 32 32 33 34 35 35 32 32 32 30 30 30 29 28 30 36 35 33 38 37 32
2 3 6 5 6 3 25 49 54 32 38 58 63 27 27 36 59 56 56 50 40 39 34 32 30 31 31 31 34 34 35 35 35 34 32 31 30 29 28 25 26 26 30 34 34 37 38 32 27
5 3 5 5 8 18 28 50 52 45 51 57 52 38 19 63 60 54 44 39 31 33 33 34 34 34 34 35 36 36 36 35 33 32 32 31 30 28 28 28 30 31 33 34 33 38 37 34 28
9 7 7 10 2 24 27 60 47 47 50 28 50 23 41 75 49 49 35 28 31 31 34 36 34 35 32 34 34 34 32 34 32 31 30 30 31 32 33 33 31 32 36 37 36 36 37 35 24
11 8 6 9 4 14 25 30 52 70 20 56 69 23 27 62 58 48 41 43 39 32 30 35 32 33 36 36 36 36 34 34 33 33 31 34 35 37 38 37 36 34 35 37 40 38 36 31 26
16 6 9 3 8 6 35 41 20 43 70 41 18 57 66 66 64 56 48 44 42 40 33 34 33 36 36 40 41 37 36 37 37 39 36 34 33 37 33 34 38 38 36 32 33 33 35 31 23
8 3 5 9 13 12 33 35 43 36 47 33 51 56 68 67 77 60 54 50 41 43 38 29 35 35 39 41 40 39 36 37 41 40 39 36 36 33 32 31 30 27 21 13 20 27 30 30 26
8 5 5 17 8 24 21 40 43 47 27 56 75 76 77 76 73 58 49 39 42 43 39 39 38 43 39 41 44 37 38 34 32 30 29 37 36 30 30 26 22 12 13 13 25 19 15 19 22
14 24 20 14 12 9 27 38 41 54 36 69 72 73 72 74 66 59 53 48 42 41 41 38 38 38 33 39 33 36 35 31 33 29 28 31 27 21 16 25 13 20 13 20 12 14 14 13 13
15 34 35 25 26 25 43 23 18 30 68 73 70 74 80 75 65 51 44 45 44 45 42 39 31 29 29 30 32 35 31 28 29 24 28 31 20 15 14 20 25 21 14 14 26 20 23 16 12
22 31 32 23 28 19 15 20 31 53 64 69 73 75 75 67 67 54 52 53 52 41 39 38 35 24 22 24 35 31 21 22 20 16 15 20 21 13 13 19 25 16 13 8 6 6 5 6 9
30 13 9 8 1 11 14 21 28 65 64 53 68 68 61 66 63 61 58 55 52 42 43 38 38 29 22 28 36 30 25 21 14 18 18 15 18 13 12 7 8 4 5 16 7 2 3 12 14
10 9 9 8 8 10 6 13 43 70 60 45 62 48 48 66 60 64 61 58 52 48 40 36 36 32 30 31 36 24 26 23 16 21 21 16 12 12 7 2 6 6 20 9 5 6 5 5 21
10 8 8 4 20 10 11 9 28 60 58 50 54 48 62 70 61 66 64 55 55 40 35 36 42 38 34 37 38 27 25 20 20 18 14 15 14 14 7 9 10 6 3 11 11 18 9 4 0
11 10 5 9 6 9 12 4 9 50 58 56 55 47 60 61 67 59 64 62 49 36 36 28 48 40 36 34 47 30 27 21 19 18 13 14 16 9 10 13 7 8 12 10 12 11 13 10 3
18 15 11 7 3 9 4 22 12 19 4 39 60 47 62 71 71 68 69 64 50 41 42 32 38 45 46 41 37 36 28 23 18 14 9 15 23 11 12 9 12 9 6 5 12 10 14 10 7
17 25 6 5 8 5 6 22 8 17 11 11 5 52 71 68 71 77 73 64 50 45 40 40 39 47 45 37 27 29 27 21 18 16 14 10 7 13 11 19 13 17 5 3 8 10 13 14 12
21 14 11 6 10 10 6 6 9 4 16 20 13 12 65 75 77 77 76 63 49 45 46 48 45 37 36 39 30 27 26 26 22 20 11 15 10 14 9 14 8 13 9 8 6 10 11 13 3
11 18 27 15 5 5 9 6 10 12 19 18 30 11 48 76 74 79 76 65 55 43 49 44 43 36 42 43 33 27 30 26 20 19 21 24 15 8 7 9 6 14 6 9 7 7 14 12 15
12 25 25 13 8 5 9 7 9 9 22 28 32 29 30 69 79 81 81 66 54 43 50 49 46 38 44 38 32 29 31 32 26 26 23 25 22 18 12 2 15 9 8 12 11 5 3 10 15
36 27 22 10 5 4 13 3 14 10 24 37 30 46 40 55 67 80 79 67 57 46 47 51 52 45 47 46 33 38 29 29 27 23 24 24 25 28 21 19 14 12 17 11 15 12 4 2 7
29 13 7 1 3 9 10 8 16 14 19 34 40 50 57 49 67 75 78 75 66 57 51 46 53 50 51 51 37 36 36 31 27 23 29 27 31 29 33 24 22 14 14 17 10 15 16 12 5
28 13 12 7 5 4 12 10 12 23 20 51 74 66 64 59 64 68 70 77 72 67 58 49 46 53 48 54 47 40 36 31 24 30 27 29 30 24 27 31 22 14 15 19 19 15 15 12 9
11 10 15 11 3 5 8 11 18 16 4 27 46 51 55 75 70 69 64 71 74 76 66 51 47 50 46 52 50 47 38 32 30 30 21 24 19 22 25 31 19 16 17 16 16 15 20 14 12
24 15 6 4 10 8 8 8 13 9 20 19 20 33 53 60 74 67 71 65 71 73 71 58 47 49 41 44 52 47 44 37 32 29 23 19 15 25 29 28 24 23 17 7 14 18 19 15 12
3 2 6 9 9 9 5 11 14 17 16 30 43 54 61 67 81 78 79 85 64 70 76 69 58 55 49 43 49 46 45 42 38 31 23 15 15 19 22 31 28 27 23 18 20 15 20 15 14
7 4 9 9 10 4 9 11 11 13 8 24 25 60 65 75 83 88 77 73 70 70 73 77 66 62 55 48 44 49 45 45 40 38 30 25 18 20 16 30 31 27 23 24 22 20 22 25 16
Wind_Direction_500mb
240 309 325 311 30 83 104 80 121 113 115 122 164 159 144 92 142 175 150 158 157 154 150 141 135 131 127 124 117 111 112 114 116 119 121 117 114 116 116 116 115 115 116 116 119 124 120 115 110
219 296 325 327 63 85 93 135 102 107 118 120 95 108 69 81 110 136 151 160 155 151 147 144 141 138 132 127 122 120 122 118 121 117 116 113 112 111 114 116 112 110 115 119 121 123 120 111 115
92 355 345 50 20 71 122 125 128 114 119 121 102 84 75 111 132 140 148 154 153 148 146 144 144 139 135 133 129 128 126 123 118 121 120 116 114 117 113 114 115 114 112 120 128 128 121 113 111
20 4 33 55 326 296 114 117 110 108 108 106 102 78 95 132 139 141 142 151 148 144 145 145 145 142 138 135 136 132 130 125 119 121 120 114 112 114 118 118 117 114 112 119 127 133 124 121 114
16 72 50 3 275 132 119 124 115 112 81 99 111 119 108 142 139 138 140 144 146 146 149 143 140 134 133 132 132 131 133 129 127 123 117 112 108 107 111 115 116 112 108 112 123 134 129 123 122
90 30 57 2 134 92 110 109 104 97 104 106 108 111 114 143 143 145 141 147 144 142 146 145 138 139 133 132 131 132 133 129 125 122 118 117 116 116 113 108 104 102 103 110 120 135 133 131 118
98 69 335 317 6 108 120 128 130 123 121 124 125 106 135 146 146 141 143 150 143 142 142 140 137 138 134 132 130 127 126 127 132 128 122 113 111 104 101 101 103 106 109 111 118 132 141 133 132
91 79 294 238 287 119 134 128 142 137 127 132 129 140 148 151 148 148 131 124 128 129 131 136 138 140 135 130 130 130 128 125 125 127 119 117 107 103 104 105 105 103 104 112 117 127 141 144 136
122 118 233 174 21 63 124 119 129 134 134 144 146 145 145 150 152 144 140 129 128 128 120 130 136 135 132 132 132 134 124 123 122 121 113 113 111 106 109 112 109 103 104 114 122 128 128 127 131
116 193 274 288 319 2 134 123 137 139 142 134 122 145 148 152 155 150 151 146 145 130 129 121 133 132 134 134 131 135 126 119 114 117 119 124 123 120 122 127 126 126 126 124 121 115 126 133 130
99 146 237 270 268 322 271 158 150 142 135 152 141 147 151 154 159 157 156 155 143 133 134 121 123 123 125 132 128 121 113 115 121 126 130 125 130 133 130 139 136 134 121 94 117 138 131 130 126
110 140 191 280 262 272 250 164 156 157 170 160 155 156 157 167 170 163 158 157 155 148 138 135 134 130 119 134 128 124 115 122 127 132 127 120 131 145 140 129 135 126 121 106 132 101 94 126 142
114 180 203 252 268 275 260 261 156 148 155 154 156 160 167 169 169 156 161 156 156 155 149 149 150 145 137 131 131 129 122 125 137 142 124 117 112 157 133 132 129 122 140 109 111 115 114 105 90
147 175 185 197 251 245 277 142 115 149 161 157 158 163 170 172 167 162 165 160 158 152 147 151 159 163 175 149 138 141 138 136 140 131 145 131 123 128 83 112 105 104 110 130 147 88 82 105 94
132 143 145 232 17 301 309 121 133 156 159 159 160 168 168 181 168 171 166 165 163 150 146 154 166 160 156 160 151 147 140 139 141 172 140 139 136 114 102 113 95 76 115 123 113 83 262 174 162
50 91 165 222 290 279 262 152 150 156 156 154 165 157 165 174 172 170 165 166 167 159 161 167 169 148 144 143 158 154 143 137 122 151 161 164 134 107 113 93 72 106 95 72 98 59 186 140 162
23 336 314 35 23 350 35 111 172 158 160 164 173 166 167 167 173 173 174 170 163 159 159 161 173 158 160 159 168 170 164 147 123 115 135 167 152 145 175 180 136 114 154 83 91 64 104 183 286
156 195 196 150 35 17 32 9 322 167 166 169 179 185 167 170 167 174 175 168 162 160 157 161 176 172 175 155 168 176 172 164 164 144 128 175 189 170 179 202 158 48 132 93 83 77 76 146 97
124 129 105 15 85 143 224 201 340 14 158 180 183 186 159 171 173 176 171 168 166 165 159 152 161 174 176 168 171 177 178 178 181 168 148 162 173 182 190 189 171 130 161 59 67 77 99 113 52
72 86 7 78 151 143 54 220 296 320 318 346 209 178 170 161 167 170 170 171 174 171 168 153 157 166 170 172 170 180 186 200 182 178 167 200 193 192 178 151 164 196 178 117 62 77 91 56 79
124 130 206 174 116 68 104 292 270 294 279 294 278 171 180 173 168 172 172 177 178 178 173 166 170 182 190 181 175 184 193 186 178 185 169 169 176 198 207 195 174 173 179 131 99 75 72 55 131
162 158 145 160 152 119 230 236 225 260 264 241 250 197 183 177 177 180 181 182 181 184 177 178 176 186 186 184 187 192 191 189 189 199 183 185 184 192 231 236 183 180 210 183 175 95 56 59 85
180 160 145 151 69 127 277 91 276 185 223 235 237 217 173 179 185 183 185 187 184 185 184 181 182 190 195 193 195 193 206 209 216 214 198 192 188 186 218 272 237 236 208 195 206 166 81 58 64
123 117 70 37 28 298 205 188 274 174 211 223 210 216 186 175 183 188 187 188 186 189 187 188 187 195 200 200 203 207 206 211 213 219 224 225 209 199 201 215 230 243 223 215 219 217 211 173 89
118 97 81 325 250 236 144 173 261 221 199 213 223 212 195 184 174 183 187 190 188 193 190 191 196 199 203 207 211 211 214 225 227 232 234 248 225 219 207 215 233 238 244 211 231 228 231 230 223
181 157 135 196 183 246 137 214 235 214 213 232 224 202 201 194 192 183 184 192 195 197 195 194 193 201 204 210 216 215 221 225 234 230 228 229 226 219 208 219 233 224 247 218 236 226 211 211 212
228 222 168 122 313 125 203 284 294 233 223 145 187 180 198 207 203 196 183 191 200 201 198 203 200 199 203 208 216 218 220 224 217 209 202 221 229 225 227 219 218 210 210 223 230 222 214 211 225
156 164 88 17 159 225 240 267 246 140 132 145 147 186 214 205 208 202 201 192 201 204 206 208 210 202 202 205 210 218 216 210 211 210 222 244 251 232 235 241 228 189 209 215 209 225 202 201 207
276 15 75 127 159 167 166 256 221 190 187 160 179 192 199 197 206 206 209 206 196 207 210 212 211 209 208 204 209 214 216 216 216 220 234 245 235 231 217 220 207 209 204 219 226 224 227 226 207
148 151 141 125 271 181 155 276 8 67 222 181 173 180 187 198 203 203 207 201 201 206 206 212 208 210 215 214 211 216 216 223 227 225 230 240 236 216 208 209 214 215 214 235 235 231 232 224 202
Wind_Speed_850mb
0 6 15 6 1 5 7 10 17 20 13 36 41 14 28 8 11 7 57 53 45 44 39 37 33 31 30 27 27 27 30 33 32 42 43 42 41 38 38 39 39 36 37 38 39 42 44 45 42
4 14 12 6 6 12 11 20 27 18 36 54 40 42 24 11 41 60 66 49 45 45 41 38 34 31 29 27 27 28 29 33 37 38 37 37 37 35 36 35 35 35 35 38 40 46 45 39 39
4 5 6 5 4 5 16 27 38 43 57 48 20 32 12 19 68 68 53 54 47 44 38 34 30 28 28 27 29 30 31 34 34 35 34 35 36 35 34 34 33 32 33 37 38 40 40 36 40
4 6 7 6 6 7 20 25 52 45 41 62 45 23 29 49 56 62 56 56 46 40 36 34 31 28 29 28 32 32 33 34 35 35 32 32 32 30 30 30 29 28 30 36 35 33 38 37 32
2 3 6 5 6 3 25 49 54 32 38 58 63 27 27 36 59 56 56 50 40 39 34 32 30 31 31 31 34 34 35 35 35 34 32 31 30 29 28 25 26 26 30 34 34 37 38 32 27
5 3 5 5 8 18 28 50 52 45 51 57 52 38 19 63 60 54 44 39 31 33 33 34 34 34 34 35 36 36 36 35 33 32 32 31 30 28 28 28 30 31 33 34 33 38 37 34 28
9 7 7 10 2 24 27 60 47 47 50 28 50 23 41 75 49 49 35 28 31 31 34 36 34 35 32 34 34 34 32 34 32 31 30 30 31 32 33 33 31 32 36 37 36 36 37 35 24
11 8 6 9 4 14 25 30 52 70 20 56 69 23 27 62 58 48 41 43 39 32 30 35 32 33 36 36 36 36 34 34 33 33 31 34 35 37 38 37 36 34 35 37 40 38 36 31 26
16 6 9 3 8 6 35 41 20 43 70 41 18 57 66 66 64 56 48 44 42 40 33 34 33 36 36 40 41 37 36 37 37 39 36 34 33 37 33 34 38 38 36 32 33 33 35 31 23
8 3 5 9 13 12 33 35 43 36 47 33 51 56 68 67 77 60 54 50 41 43 38 29 35 35 39 41 40 39 36 37 41 40 39 36 36 33 32 31 30 27 21 13 20 27 30 30 26
8 5 5 17 8 24 21 40 43 47 27 56 75 76 77 76 73 58 49 39 42 43 39 39 38 43 39 41 44 37 38 34 32 30 29 37 36 30 30 26 22 12 13 13 25 19 15 19 22
14 24 20 14 12 9 27 38 41 54 36 69 72 73 72 74 66 59 53 48 42 41 41 38 38 38 33 39 33 36 35 31 33 29 28 31 27 21 16 25 13 20 13 20 12 14 14 13 13
15 34 35 25 26 25 43 23 18 30 68 73 70 74 80 75 65 51 44 45 44 45 42 39 31 29 29 30 32 35 31 28 29 24 28 31 20 15 14 20 25 21 14 14 26 20 23 16 12
22 31 32 23 28 19 15 20 31 53 64 69 73 75 75 67 67 54 52 53 52 41 39 38 35 24 22 24 35 31 21 22 20 16 15 20 21 13 13 19 25 16 13 8 6 6 5 6 9
30 13 9 8 1 11 14 21 28 65 64 53 68 68 61 66 63 61 58 55 52 42 43 38 38 29 22 28 36 30 25 21 14 18 18 15 18 13 12 7 8 4 5 16 7 2 3 12 14
10 9 9 8 8 10 6 13 43 70 60 45 62 48 48 66 60 64 61 58 52 48 40 36 36 32 30 31 36 24 26 23 16 21 21 16 12 12 7 2 6 6 20 9 5 6 5 5 21
10 8 8 4 20 10 11 9 28 60 58 50 54 48 62 70 61 66 64 55 55 40 35 36 42 38 34 37 38 27 25 20 20 18 14 15 14 14 7 9 10 6 3 11 11 18 9 4 0
11 10 5 9 6 9 12 4 9 50 58 56 55 47 60 61 67 59 64 62 49 36 36 28 48 40 36 34 47 30 27 21 19 18 13 14 16 9 10 13 7 8 12 10 12 11 13 10 3
18 15 11 7 3 9 4 22 12 19 4 39 60 47 62 71 71 68 69 64 50 41 42 32 38 45 46 41 37 36 28 23 18 14 9 15 23 11 12 9 12 9 6 5 12 10 14 10 7
17 25 6 5 8 5 6 22 8 17 11 11 5 52 71 68 71 77 73 64 50 45 40 40 39 47 45 37 27 29 27 21 18 16 14 10 7 13 11 19 13 17 5 3 8 10 13 14 12
21 14 11 6 10 10 6 6 9 4 16 20 13 12 65 75 77 77 76 63 49 45 46 48 45 37 36 39 30 27 26 26 22 20 11 15 10 14 9 14 8 13 9 8 6 10 11 13 3
11 18 27 15 5 5 9 6 10 12 19 18 30 11 48 76 74 79 76 65 55 43 49 44 43 36 42 43 33 27 30 26 20 19 21 24 15 8 7 9 6 14 6 9 7 7 14 12 15
12 25 25 13 8 5 9 7 9 9 22 28 32 29 30 69 79 81 81 66 54 43 50 49 46 38 44 38 32 29 31 32 26 26 23 25 22 18 12 2 15 9 8 12 11 5 3 10 15
36 27 22 10 5 4 13 3 14 10 24 37 30 46 40 55 67 80 79 67 57 46 47 51 52 45 47 46 33 38 29 29 27 23 24 24 25 28 21 19 14 12 17 11 15 12 4 2 7
29 13 7 1 3 9 10 8 16 14 19 34 40 50 57 49 67 75 78 75 66 57 51 46 53 50 51 51 37 36 36 31 27 23 29 27 31 29 33 24 22 14 14 17 10 15 16 12 5
28 13 12 7 5 4 12 10 12 23 20 51 74 66 64 59 64 68 70 77 72 67 58 49 46 53 48 54 47 40 36 31 24 30 27 29 30 24 27 31 22 14 15 19 19 15 15 12 9
11 10 15 11 3 5 8 11 18 16 4 27 46 51 55 75 70 69 64 71 74 76 66 51 47 50 46 52 50 47 38 32 30 30 21 24 19 22 25 31 19 16 17 16 16 15 20 14 12
24 15 6 4 10 8 8 8 13 9 20 19 20 33 53 60 74 67 71 65 71 73 71 58 47 49 41 44 52 47 44 37 32 29 23 19 15 25 29 28 24 23 17 7 14 18 19 15 12
3 2 6 9 9 9 5 11 14 17 16 30 43 54 61 67 81 78 79 85 64 70 76 69 58 55 49 43 49 46 45 42 38 31 23 15 15 19 22 31 28 27 23 18 20 15 20 15 14
7 4 9 9 10 4 9 11 11 13 8 24 25 60 65 75 83 88 77 73 70 70 73 77 66 62 55 48 44 49 45 45 40 38 30 25 18 20 16 30 31 27 23 24 22 20 22 25 16
Wind_Direction_850mb
240 309 325 311 30 83 104 80 121 113 115 122 164 159 144 92 142 175 150 158 157 154 150 141 135 131 127 124 117 111 112 114 116 119 121 117 114 116 116 116 115 115 116 116 119 124 120 115 110
219 296 325 327 63 85 93 135 102 107 118 120 95 108 69 81 110 136 151 160 155 151 147 144 141 138 132 127 122 120 122 118 121 117 116 113 112 111 114 116 112 110 115 119 121 123 120 111 115
92 355 345 50 20 71 122 125 128 114 119 121 102 84 75 111 132 140 148 154 153 148 146 144 144 139 135 133 129 128 126 123 118 121 120 116 114 117 113 114 115 114 112 120 128 128 121 113 111
20 4 33 55 326 296 114 117 110 108 108 106 102 78 95 132 139 141 142 151 148 144 145 145 145 142 138 135 136 132 130 125 119 121 120 114 112 114 118 118 117 114 112 119 127 133 124 121 114
16 72 50 3 275 132 119 124 115 112 81 99 111 119 108 142 139 138 140 144 146 146 149 143 140 134 133 132 132 131 133 129 127 123 117 112 108 107 111 115 116 112 108 112 123 134 129 123 122
90 30 57 2 134 92 110 109 104 97 104 106 108 111 114 143 143 145 141 147 144 142 146 145 138 139 133 132 131 132 133 129 125 122 118 117 116 116 113 108 104 102 103 110 120 135 133 131 118
98 69 335 317 6 108 120 128 130 123 121 124 125 106 135 146 146 141 143 150 143 142 142 140 137 138 134 132 130 127 126 127 132 128 122 113 111 104 101 101 103 106 109 111 118 132 141 133 132
91 79 294 238 287 119 134 128 142 137 127 132 129 140 148 151 148 148 131 124 128 129 131 136 138 140 135 130 130 130 128 125 125 127 119 117 107 103 104 105 105 103 104 112 117 127 141 144 136
122 118 233 174 21 63 124 119 129 134 134 144 146 145 145 150 152 144 140 129 128 128 120 130 136 135 132 132 132 134 124 123 122 121 113 113 111 106 109 112 109 103 104 114 122 128 128 127 131
116 193 274 288 319 2 134 123 137 139 142 134 122 145 148 152 155 150 151 146 145 130 129 121 133 132 134 134 131 135 126 119 114 117 119 124 123 120 122 127 126 126 126 124 121 115 126 133 130
99 146 237 270 268 322 271 158 150 142 135 152 141 147 151 154 159 157 156 155 143 133 134 121 123 123 125 132 128 121 113 115 121 126 130 125 130 133 130 139 136 134 121 94 117 138 131 130 126
110 140 191 280 262 272 250 164 156 157 170 160 155 156 157 167 170 163 158 157 155 148 138 135 134 130 119 134 128 124 115 122 127 132 127 120 131 145 140 129 135 126 121 106 132 101 94 126 142
114 180 203 252 268 275 260 261 156 148 155 154 156 160 167 169 169 156 161 156 156 155 149 149 150 145 137 131 131 129 122 125 137 142 124 117 112 157 133 132 129 122 140 109 111 115 114 105 90
147 175 185 197 251 245 277 142 115 149 161 157 158 163 170 172 167 162 165 160 158 152 147 151 159 163 175 149 138 141 138 136 140 131 145 131 123 128 83 112 105 104 110 130 147 88 82 105 94
132 143 145 232 17 301 309 121 133 156 159 159 160 168 168 181 168 171 166 165 163 150 146 154 166 160 156 160 151 147 140 139 141 172 140 139 136 114 102 113 95 76 115 123 113 83 262 174 162
50 91 165 222 290 279 262 152 150 156 156 154 165 157 165 174 172 170 165 166 167 159 161 167 169 148 144 143 158 154 143 137 122 151 161 164 134 107 113 93 72 106 95 72 98 59 186 140 162
23 336 314 35 23 350 35 111 172 158 160 164 173 166 167 167 173 173 174 170 163 159 159 161 173 158 160 159 168 170 164 147 123 115 135 167 152 145 175 180 136 114 154 83 91 64 104 183 286
156 195 196 150 35 17 32 9 322 167 166 169 179 185 167 170 167 174 175 168 162 160 157 161 176 172 175 155 168 176 172 164 164 144 128 175 189 170 179 202 158 48 132 93 83 77 76 146 97
124 129 105 15 85 143 224 201 340 14 158 180 183 186 159 171 173 176 171 168 166 165 159 152 161 174 176 168 171 177 178 178 181 168 148 162 173 182 190 189 171 130 161 59 67 77 99 113 52
72 86 7 78 151 143 54 220 296 320 318 346 209 178 170 161 167 170 170 171 174 171 168 153 157 166 170 172 170 180 186 200 182 178 167 200 193 192 178 151 164 196 178 117 62 77 91 56 79
124 130 206 174 116 68 104 292 270 294 279 294 278 171 180 173 168 172 172 177 178 178 173 166 170 182 190 181 175 184 193 186 178 185 169 169 176 198 207 195 174 173 179 131 99 75 72 55 131
162 158 145 160 152 119 230 236 225 260 264 241 250 197 183 177 177 180 181 182 181 184 177 178 176 186 186 184 187 192 191 189 189 199 183 185 184 192 231 236 183 180 210 183 175 95 56 59 85
180 160 145 151 69 127 277 91 276 185 223 235 237 217 173 179 185 183 185 187 184 185 184 181 182 190 195 193 195 193 206 209 216 214 198 192 188 186 218 272 237 236 208 195 206 166 81 58 64
123 117 70 37 28 298 205 188 274 174 211 223 210 216 186 175 183 188 187 188 186 189 187 188 187 195 200 200 203 207 206 211 213 219 224 225 209 199 201 215 230 243 223 215 219 217 211 173 89
118 97 81 325 250 236 144 173 261 221 199 213 223 212 195 184 174 183 187 190 188 193 190 191 196 199 203 207 211 211 214 225 227 232 234 248 225 219 207 215 233 238 244 211 231 228 231 230 223
181 157 135 196 183 246 137 214 235 214 213 232 224 202 201 194 192 183 184 192 195 197 195 194 193 201 204 210 216 215 221 225 234 230 228 229 226 219 208 219 233 224 247 218 236 226 211 211 212
228 222 168 122 313 125 203 284 294 233 223 145 187 180 198 207 203 196 183 191 200 201 198 203 200 199 203 208 216 218 220 224 217 209 202 221 229 225 227 219 218 210 210 223 230 222 214 211 225
156 164 88 17 159 225 240 267 246 140 132 145 147 186 214 205 208 202 201 192 201 204 206 208 210 202 202 205 210 218 216 210 211 210 222 244 251 232 235 241 228 189 209 215 209 225 202 201 207
276 15 75 127 159 167 166 256 221 190 187 160 179 192 199 197 206 206 209 206 196 207 210 212 211 209 208 204 209 214 216 216 216 220 234 245 235 231 217 220 207 209 204 219 226 224 227 226 207
148 151 141 125 271 181 155 276 8 67 222 181 173 180 187 198 203 203 207 201 201 206 206 212 208 210 215 214 211 216 216 223 227 225 230 240 236 216 208 209 214 215 214 235 235 231 232 224 202